{"data":{"norad_id":56413,"intl_designator":"2023-061AR","name":"STARLINK-6258","alt_names":[],"object_type":"PAYLOAD","status":"ACTIVE","operator":null,"country":"US","launch_date":"2023-05-04","launch_site_code":"AFETR","launch_vehicle":null,"mission":null,"orbit_class":"UNKNOWN","rcs_meters":null,"size_class":null,"mass_kg":null,"dimensions":null,"purposes":["comms"],"wikipedia_slug":null,"has_3d_model":false,"image_url":null,"decayed_at":null,"tle_current":{"epoch":"2026-09-20T10:30:38.710656Z","epoch_age_seconds":117556,"freshness":"FRESH","line1":"1 56413U 23061AR  26263.43794804  .00000753  00000+0  36850-4 0  9999","line2":"2 56413  43.0029 167.6360 0000336 234.0018 126.0802 15.27583582186659","mean_motion":15.27583582,"eccentricity":3.36e-5,"inclination_deg":43.0029,"raan_deg":167.636,"arg_perigee_deg":234.0018,"mean_anomaly_deg":126.0802,"bstar":3.685e-5,"rev_number":18665,"period_min":94.26652766945,"perigee_km":482.80783477155,"apogee_km":483.26890575643,"semimajor_km":6861.175370264,"source":"CELESTRAK","updated_at":"2026-09-21T09:00:33.437434Z"}}}